Flag for Japan Weather past 2 weeks in Fukuoka, Japan

57 °F

Passing clouds.

Feels Like: 57 °F
Forecast: 50 / 56 °F
Wind: 5 mph from Northeast

Location: Fukuoka Airport

Current Time: Nov 25, 2015 at 5:53:55 PM

Latest Report: Nov 25, 2015 at 5:30 PM

Visibility: N/A

Pressure: 29.89 "Hg

Humidity: 67%

Dew point: 46 °F

Location of FukuokaLocation

Historic Weather in Fukuoka — Graph


Fukuoka temperature yesterday

Maximum temperature yesterday: 64 °F (at 12:00 PM)
Minimum temperature yesterday: 55 °F (at 10:30 PM)
Average temperature yesterday: 60 °F

Past Weeks' High & Low Weather Summary

High72 °F (Nov 15, 1:00 PM)94% (Nov 11, 4:30 AM)30.33 "Hg (Nov 11, 4:30 AM)
Low50 °F (Nov 11, 5:30 AM)43% (Nov 12, 1:30 PM)29.80 "Hg (Nov 18, 2:00 PM)
Average62 °F75%30.10 "Hg
* Reported Nov 10 4:00 PM — Nov 25 4:30 PM, Fukuoka, Weather by CustomWeather, © 2015

Note: Actual official high and low records may vary slightly from our data, if they occured in-between our weather recording intervals... More about our weather records


Fukuoka weather history for previous 24 hours

Time TempWeatherWind HumidityBarometerVisibility
4:30 PM
Wed, Nov 25
57 °FBroken clouds.2 mph67%29.89 "HgN/A
4:00 PM57 °FBroken clouds.5 mph67%29.89 "HgN/A
3:30 PM57 °FPartly sunny.6 mph67%29.89 "HgN/A
3:00 PM57 °FPartly sunny.1 mph63%29.89 "HgN/A
2:30 PM57 °FPartly sunny.3 mph67%29.89 "HgN/A
2:00 PM57 °FBroken clouds.3 mph63%29.89 "HgN/A
1:00 PM57 °FBroken clouds.2 mph67%29.92 "HgN/A
12:30 PM55 °FBroken clouds.3 mph72%29.92 "HgN/A
12:00 PM55 °FBroken clouds.2 mph72%29.95 "HgN/A
11:30 AM55 °FLight rain. Broken clouds.2 mph72%29.98 "HgN/A
11:00 AM55 °FLight rain. Broken clouds.6 mph67%29.98 "HgN/A
10:30 AM55 °FBroken clouds.5 mph63%29.98 "HgN/A
10:00 AM55 °FLight rain. Broken clouds.2 mph63%29.98 "HgN/A
9:00 AM55 °FLight rain. Broken clouds.7 mph63%30.01 "HgN/A
8:30 AM55 °FBroken clouds.5 mph59%30.01 "HgN/A
8:00 AM54 °FBroken clouds.7 mph63%30.01 "HgN/A
7:30 AM54 °FLight rain. Broken clouds.5 mph63%30.04 "HgN/A
7:00 AM54 °FBroken clouds.8 mph63%30.01 "HgN/A
6:30 AM54 °FPartly cloudy.6 mph63%30.01 "HgN/A
5:30 AM54 °FPartly cloudy.6 mph63%30.01 "HgN/A
5:00 AM54 °FPassing clouds.3 mph63%30.01 "HgN/A
4:30 AM54 °FPassing clouds.7 mph63%30.01 "HgN/A
4:00 AM55 °FPassing clouds.6 mph59%30.04 "HgN/A
3:30 AM55 °FPassing clouds.8 mph59%30.04 "HgN/A
3:00 AM55 °FPassing clouds.7 mph59%30.04 "HgN/A
2:30 AM55 °FPassing clouds.8 mph59%30.04 "HgN/A
2:00 AM55 °FPassing clouds.6 mph59%30.04 "HgN/A
1:30 AM55 °FPartly cloudy.5 mph59%30.04 "HgN/A
1:00 AM55 °FPassing clouds.6 mph59%30.07 "HgN/A
12:30 AM55 °FPartly cloudy.3 mph59%30.09 "HgN/A
12:00 AM55 °FPassing clouds.5 mph63%30.09 "HgN/A
11:30 PM
Tue, Nov 24
55 °FPassing clouds.7 mph63%30.07 "HgN/A
11:00 PM55 °FPassing clouds.6 mph63%30.09 "HgN/A
10:30 PM55 °FPassing clouds.8 mph67%30.12 "HgN/A
10:00 PM57 °FPartly cloudy.8 mph67%30.12 "HgN/A
9:30 PM57 °FPassing clouds.7 mph67%30.09 "HgN/A
9:00 PM57 °FPassing clouds.8 mph67%30.09 "HgN/A
8:30 PM57 °FPassing clouds.3 mph67%30.12 "HgN/A
8:00 PM59 °FPassing clouds.8 mph63%30.12 "HgN/A
7:30 PM57 °FPassing clouds.3 mph63%30.12 "HgN/A
7:00 PM57 °FPassing clouds.3 mph63%30.12 "HgN/A
6:30 PM59 °FPassing clouds.3 mph59%30.12 "HgN/A
6:00 PM59 °FPassing clouds.7 mph59%30.12 "HgN/A
5:30 PM59 °FPartly cloudy.12 mph59%30.12 "HgN/A
5:00 PM59 °FBroken clouds.14 mph59%30.09 "HgN/A
Weather by CustomWeather, © 2015

See weather overviewHow to use our weather pages